Year,Month,Day,Hour,Minute,Value (Times are PST for temperature in C)
2019,04,02,00,00,12.80
2019,04,02,00,01,12.80
2019,04,02,00,02,12.80
2019,04,02,00,03,12.70
2019,04,02,00,04,12.70
2019,04,02,00,05,12.60
2019,04,02,00,06,12.60
2019,04,02,00,07,12.50
2019,04,02,00,08,12.50
2019,04,02,00,09,12.40
2019,04,02,00,10,12.40
2019,04,02,00,11,12.40
2019,04,02,00,12,12.30
2019,04,02,00,13,12.30
2019,04,02,00,14,12.30
2019,04,02,00,15,12.30
2019,04,02,00,16,12.30
2019,04,02,00,17,12.20
2019,04,02,00,18,12.20
2019,04,02,00,19,12.10
2019,04,02,00,20,12.10
2019,04,02,00,21,12.00
2019,04,02,00,22,12.00
2019,04,02,00,23,12.00
2019,04,02,00,24,11.90
2019,04,02,00,25,11.90
2019,04,02,00,26,11.90
2019,04,02,00,27,11.90
2019,04,02,00,28,11.90
2019,04,02,00,29,11.80
2019,04,02,00,30,11.80
2019,04,02,00,31,11.80
2019,04,02,00,32,11.70
2019,04,02,00,33,11.70
2019,04,02,00,34,11.70
2019,04,02,00,35,11.60
2019,04,02,00,36,11.60
2019,04,02,00,37,11.60
2019,04,02,00,38,11.60
2019,04,02,00,39,11.60
2019,04,02,00,40,11.60
2019,04,02,00,41,11.60
2019,04,02,00,42,11.70
2019,04,02,00,43,11.70
2019,04,02,00,44,11.70
2019,04,02,00,45,11.60
2019,04,02,00,46,11.60
2019,04,02,00,47,11.50
2019,04,02,00,48,11.50
2019,04,02,00,49,11.50
2019,04,02,00,50,11.50
2019,04,02,00,51,11.40
2019,04,02,00,52,11.50
2019,04,02,00,53,11.40
2019,04,02,00,54,11.40
2019,04,02,00,55,11.40
2019,04,02,00,56,11.40
2019,04,02,00,57,11.40
2019,04,02,00,58,11.40
2019,04,02,00,59,11.30
2019,04,02,01,00,11.30
2019,04,02,01,01,11.30
2019,04,02,01,02,11.30
2019,04,02,01,03,11.30
2019,04,02,01,04,11.20
2019,04,02,01,05,11.20
2019,04,02,01,06,11.20
2019,04,02,01,07,11.20
2019,04,02,01,08,11.20
2019,04,02,01,09,11.20
2019,04,02,01,10,11.20
2019,04,02,01,11,11.30
2019,04,02,01,12,11.30
2019,04,02,01,13,11.30
2019,04,02,01,14,11.30
2019,04,02,01,15,11.30
2019,04,02,01,16,11.30
2019,04,02,01,17,11.30
2019,04,02,01,18,11.30
2019,04,02,01,19,11.30
2019,04,02,01,20,11.30
2019,04,02,01,21,11.30
2019,04,02,01,22,11.30
2019,04,02,01,23,11.30
2019,04,02,01,24,11.30
2019,04,02,01,25,11.20
2019,04,02,01,26,11.20
2019,04,02,01,27,11.10
2019,04,02,01,28,11.00
2019,04,02,01,29,10.90
2019,04,02,01,30,10.80
2019,04,02,01,31,10.70
2019,04,02,01,32,10.60
2019,04,02,01,33,10.50
2019,04,02,01,34,10.40
2019,04,02,01,35,10.40
2019,04,02,01,36,10.30
2019,04,02,01,37,10.30
2019,04,02,01,38,10.20
2019,04,02,01,39,10.20
2019,04,02,01,40,10.20
2019,04,02,01,41,10.10
2019,04,02,01,42,10.10
2019,04,02,01,43,10.00
2019,04,02,01,44,10.00
2019,04,02,01,45,9.90
2019,04,02,01,46,9.80
2019,04,02,01,47,9.70
2019,04,02,01,48,9.70
2019,04,02,01,49,9.70
2019,04,02,01,50,9.70
2019,04,02,01,51,9.70
2019,04,02,01,52,9.80
2019,04,02,01,53,9.90
2019,04,02,01,54,10.00
2019,04,02,01,55,10.10
2019,04,02,01,56,10.20
2019,04,02,01,57,10.30
2019,04,02,01,58,10.30
2019,04,02,01,59,10.30
2019,04,02,02,00,10.40
2019,04,02,02,01,10.40
2019,04,02,02,02,10.40
2019,04,02,02,03,10.40
2019,04,02,02,04,10.40
2019,04,02,02,05,10.40
2019,04,02,02,06,10.40
2019,04,02,02,07,10.40
2019,04,02,02,08,10.30
2019,04,02,02,09,10.40
2019,04,02,02,10,10.30
2019,04,02,02,11,10.30
2019,04,02,02,12,10.40
2019,04,02,02,13,10.40
2019,04,02,02,14,10.40
2019,04,02,02,15,10.40
2019,04,02,02,16,10.40
2019,04,02,02,17,10.50
2019,04,02,02,18,10.50
2019,04,02,02,19,10.50
2019,04,02,02,20,10.50
2019,04,02,02,21,10.50
2019,04,02,02,22,10.50
2019,04,02,02,23,10.50
2019,04,02,02,24,10.40
2019,04,02,02,25,10.40
2019,04,02,02,26,10.40
2019,04,02,02,27,10.30
2019,04,02,02,28,10.30
2019,04,02,02,29,10.30
2019,04,02,02,30,10.30
2019,04,02,02,31,10.20
2019,04,02,02,32,10.20
2019,04,02,02,33,10.10
2019,04,02,02,34,10.10
2019,04,02,02,35,10.10
2019,04,02,02,36,10.00
2019,04,02,02,37,10.00
2019,04,02,02,38,9.90
2019,04,02,02,39,9.90
2019,04,02,02,40,9.80
2019,04,02,02,41,9.80
2019,04,02,02,42,9.80
2019,04,02,02,43,9.70
2019,04,02,02,44,9.70
2019,04,02,02,45,9.70
2019,04,02,02,46,9.70
2019,04,02,02,47,9.60
2019,04,02,02,48,9.60
2019,04,02,02,49,9.60
2019,04,02,02,50,9.50
2019,04,02,02,51,9.50
2019,04,02,02,52,9.40
2019,04,02,02,53,9.40
2019,04,02,02,54,9.40
2019,04,02,02,55,9.40
2019,04,02,02,56,9.40
2019,04,02,02,57,9.30
2019,04,02,02,58,9.30
2019,04,02,02,59,9.30
2019,04,02,03,00,9.30
2019,04,02,03,01,9.30
2019,04,02,03,02,9.20
2019,04,02,03,03,9.20
2019,04,02,03,04,9.20
2019,04,02,03,05,9.20
2019,04,02,03,06,9.20
2019,04,02,03,07,9.10
2019,04,02,03,08,9.10
2019,04,02,03,09,9.10
2019,04,02,03,10,9.10
2019,04,02,03,11,9.10
2019,04,02,03,12,9.10
2019,04,02,03,13,9.10
2019,04,02,03,14,9.10
2019,04,02,03,15,9.10
2019,04,02,03,16,9.10
2019,04,02,03,17,9.10
2019,04,02,03,18,9.10
2019,04,02,03,19,9.10
2019,04,02,03,20,9.10
2019,04,02,03,21,9.10
2019,04,02,03,22,9.10
2019,04,02,03,23,9.10
2019,04,02,03,24,9.10
2019,04,02,03,25,9.10
2019,04,02,03,26,9.10
2019,04,02,03,27,9.20
2019,04,02,03,28,9.20
2019,04,02,03,29,9.20
2019,04,02,03,30,9.20
2019,04,02,03,31,9.20
2019,04,02,03,32,9.20
2019,04,02,03,33,9.20
2019,04,02,03,34,9.20
2019,04,02,03,35,9.20
2019,04,02,03,36,9.30
2019,04,02,03,37,9.30
2019,04,02,03,38,9.30
2019,04,02,03,39,9.30
2019,04,02,03,40,9.30
2019,04,02,03,41,9.30
2019,04,02,03,42,9.30
2019,04,02,03,43,9.30
2019,04,02,03,44,9.30
2019,04,02,03,45,9.30
2019,04,02,03,46,9.30
2019,04,02,03,47,9.30
2019,04,02,03,48,9.20
2019,04,02,03,49,9.20
2019,04,02,03,50,9.20
2019,04,02,03,51,9.20
2019,04,02,03,52,9.20
2019,04,02,03,53,9.20
2019,04,02,03,54,9.20
2019,04,02,03,55,9.20
2019,04,02,03,56,9.20
2019,04,02,03,57,9.20
2019,04,02,03,58,9.10
2019,04,02,03,59,9.10
2019,04,02,04,00,9.10
2019,04,02,04,01,9.10
2019,04,02,04,02,9.10
2019,04,02,04,03,9.10
2019,04,02,04,04,9.10
2019,04,02,04,05,9.10
2019,04,02,04,06,9.10
2019,04,02,04,07,9.00
2019,04,02,04,08,9.00
2019,04,02,04,09,9.10
2019,04,02,04,10,9.10
2019,04,02,04,11,9.10
2019,04,02,04,12,9.10
2019,04,02,04,13,9.10
2019,04,02,04,14,9.10
2019,04,02,04,15,9.10
2019,04,02,04,16,9.10
2019,04,02,04,17,9.10
2019,04,02,04,18,9.10
2019,04,02,04,19,9.10
2019,04,02,04,20,9.10
2019,04,02,04,21,9.20
2019,04,02,04,22,9.20
2019,04,02,04,23,9.20
2019,04,02,04,24,9.20
2019,04,02,04,25,9.20
2019,04,02,04,26,9.20
2019,04,02,04,27,9.20
2019,04,02,04,28,9.20
2019,04,02,04,29,9.10
2019,04,02,04,30,9.10
2019,04,02,04,31,9.10
2019,04,02,04,32,9.00
2019,04,02,04,33,9.00
2019,04,02,04,34,8.90
2019,04,02,04,35,8.90
2019,04,02,04,36,8.90
2019,04,02,04,37,8.90
2019,04,02,04,38,8.90
2019,04,02,04,39,8.90
2019,04,02,04,40,8.90
2019,04,02,04,41,8.90
2019,04,02,04,42,8.90
2019,04,02,04,43,8.90
2019,04,02,04,44,8.90
2019,04,02,04,45,8.90
2019,04,02,04,46,8.90
2019,04,02,04,47,8.90
2019,04,02,04,48,8.90
2019,04,02,04,49,8.80
2019,04,02,04,50,8.80
2019,04,02,04,51,8.80
2019,04,02,04,52,8.70
2019,04,02,04,53,8.70
2019,04,02,04,54,8.70
2019,04,02,04,55,8.70
2019,04,02,04,56,8.70
2019,04,02,04,57,8.70
2019,04,02,04,58,8.70
2019,04,02,04,59,8.70
2019,04,02,05,00,8.70
2019,04,02,05,01,8.70
2019,04,02,05,02,8.70
2019,04,02,05,03,8.70
2019,04,02,05,04,8.60
2019,04,02,05,05,8.60
2019,04,02,05,06,8.60
2019,04,02,05,07,8.60
2019,04,02,05,08,8.60
2019,04,02,05,09,8.60
2019,04,02,05,10,8.60
2019,04,02,05,11,8.60
2019,04,02,05,12,8.70
2019,04,02,05,13,8.70
2019,04,02,05,14,8.70
2019,04,02,05,15,8.70
2019,04,02,05,16,8.70
2019,04,02,05,17,8.80
2019,04,02,05,18,8.80
2019,04,02,05,19,8.80
2019,04,02,05,20,8.80
2019,04,02,05,21,8.80
2019,04,02,05,22,8.80
2019,04,02,05,23,8.70
2019,04,02,05,24,8.70
2019,04,02,05,25,8.70
2019,04,02,05,26,8.70
2019,04,02,05,27,8.70
2019,04,02,05,28,8.70
2019,04,02,05,29,8.70
2019,04,02,05,30,8.70
2019,04,02,05,31,8.70
2019,04,02,05,32,8.70
2019,04,02,05,33,8.70
2019,04,02,05,34,8.70
2019,04,02,05,35,8.70
2019,04,02,05,36,8.60
2019,04,02,05,37,8.60
2019,04,02,05,38,8.60
2019,04,02,05,39,8.60
2019,04,02,05,40,8.60
2019,04,02,05,41,8.60
2019,04,02,05,42,8.60
2019,04,02,05,43,8.60
2019,04,02,05,44,8.60
2019,04,02,05,45,8.60
2019,04,02,05,46,8.60
2019,04,02,05,47,8.60
2019,04,02,05,48,8.60
2019,04,02,05,49,8.60
2019,04,02,05,50,8.50
2019,04,02,05,51,8.50
2019,04,02,05,52,8.50
2019,04,02,05,53,8.60
2019,04,02,05,54,8.50
2019,04,02,05,55,8.50
2019,04,02,05,56,8.50
2019,04,02,05,57,8.40
2019,04,02,05,58,8.40
2019,04,02,05,59,8.40
2019,04,02,06,00,8.40
2019,04,02,06,01,8.40
2019,04,02,06,02,8.30
2019,04,02,06,03,8.30
2019,04,02,06,04,8.30
2019,04,02,06,05,8.30
2019,04,02,06,06,8.30
2019,04,02,06,07,8.30
2019,04,02,06,08,8.30
2019,04,02,06,09,8.30
2019,04,02,06,10,8.20
2019,04,02,06,11,8.20
2019,04,02,06,12,8.10
2019,04,02,06,13,8.10
2019,04,02,06,14,8.10
2019,04,02,06,15,8.10
2019,04,02,06,16,8.10
2019,04,02,06,17,8.10
2019,04,02,06,18,8.10
2019,04,02,06,19,8.10
2019,04,02,06,20,8.10
2019,04,02,06,21,8.00
2019,04,02,06,22,8.00
2019,04,02,06,23,8.00
2019,04,02,06,24,8.00
2019,04,02,06,25,8.00
2019,04,02,06,26,7.90
2019,04,02,06,27,7.90
2019,04,02,06,28,7.90
2019,04,02,06,29,7.90
2019,04,02,06,30,7.90
2019,04,02,06,31,7.90
2019,04,02,06,32,7.90
2019,04,02,06,33,7.90
2019,04,02,06,34,7.90
2019,04,02,06,35,7.90
2019,04,02,06,36,7.90
2019,04,02,06,37,7.90
2019,04,02,06,38,7.90
2019,04,02,06,39,7.90
2019,04,02,06,40,7.90
2019,04,02,06,41,7.90
2019,04,02,06,42,7.90
2019,04,02,06,43,7.80
2019,04,02,06,44,7.80
2019,04,02,06,45,7.80
2019,04,02,06,46,7.80
2019,04,02,06,47,7.70
2019,04,02,06,48,7.70
2019,04,02,06,49,7.70
2019,04,02,06,50,7.70
2019,04,02,06,51,7.70
2019,04,02,06,52,7.60
2019,04,02,06,53,7.60
2019,04,02,06,54,7.50
2019,04,02,06,55,7.50
2019,04,02,06,56,7.40
2019,04,02,06,57,7.40
2019,04,02,06,58,7.40
2019,04,02,06,59,7.40
2019,04,02,07,00,7.30
2019,04,02,07,01,7.30
2019,04,02,07,02,7.30
2019,04,02,07,03,7.30
2019,04,02,07,04,7.40
2019,04,02,07,05,7.40
2019,04,02,07,06,7.40
2019,04,02,07,07,7.40
2019,04,02,07,08,7.40
2019,04,02,07,09,7.50
2019,04,02,07,10,7.50
2019,04,02,07,11,7.50
2019,04,02,07,12,7.50
2019,04,02,07,13,7.50
2019,04,02,07,14,7.50
2019,04,02,07,15,7.50
2019,04,02,07,16,7.50
2019,04,02,07,17,7.50
2019,04,02,07,18,7.50
2019,04,02,07,19,7.60
2019,04,02,07,20,7.60
2019,04,02,07,21,7.60
2019,04,02,07,22,7.60
2019,04,02,07,23,7.60
2019,04,02,07,24,7.60
2019,04,02,07,25,7.70
2019,04,02,07,26,7.70
2019,04,02,07,27,7.70
2019,04,02,07,28,7.70
2019,04,02,07,29,7.70
2019,04,02,07,30,7.70
2019,04,02,07,31,7.70
2019,04,02,07,32,7.70
2019,04,02,07,33,7.70
2019,04,02,07,34,7.70
2019,04,02,07,35,7.70
2019,04,02,07,36,7.70
2019,04,02,07,37,7.70
2019,04,02,07,38,7.70
2019,04,02,07,39,7.70
2019,04,02,07,40,7.70
2019,04,02,07,41,7.80
2019,04,02,07,42,7.80
2019,04,02,07,43,7.80
2019,04,02,07,44,7.90
2019,04,02,07,45,7.90
2019,04,02,07,46,7.90
2019,04,02,07,47,8.00
2019,04,02,07,48,8.00
2019,04,02,07,49,8.00
2019,04,02,07,50,8.00
2019,04,02,07,51,8.10
2019,04,02,07,52,8.10
2019,04,02,07,53,8.10
2019,04,02,07,54,8.20
2019,04,02,07,55,8.20
2019,04,02,07,56,8.20
2019,04,02,07,57,8.20
2019,04,02,07,58,8.20
2019,04,02,07,59,8.20
2019,04,02,08,00,8.30
2019,04,02,08,01,8.30
2019,04,02,08,02,8.30
2019,04,02,08,03,8.30
2019,04,02,08,04,8.30
2019,04,02,08,05,8.30
2019,04,02,08,06,8.30
2019,04,02,08,07,8.30
2019,04,02,08,08,8.30
2019,04,02,08,09,8.30
2019,04,02,08,10,8.30
2019,04,02,08,11,8.30
2019,04,02,08,12,8.30
2019,04,02,08,13,8.30
2019,04,02,08,14,8.40
2019,04,02,08,15,8.40
2019,04,02,08,16,8.40
2019,04,02,08,17,8.40
2019,04,02,08,18,8.50
2019,04,02,08,19,8.50
2019,04,02,08,20,8.60
2019,04,02,08,21,8.60
2019,04,02,08,22,8.60
2019,04,02,08,23,8.60
2019,04,02,08,24,8.70
2019,04,02,08,25,8.70
2019,04,02,08,26,8.70
2019,04,02,08,27,8.70
2019,04,02,08,28,8.70
2019,04,02,08,29,8.80
2019,04,02,08,30,8.80
2019,04,02,08,31,8.80
2019,04,02,08,32,8.90
2019,04,02,08,33,8.90
2019,04,02,08,34,9.00
2019,04,02,08,35,9.00
2019,04,02,08,36,9.10
2019,04,02,08,37,9.10
2019,04,02,08,38,9.20
2019,04,02,08,39,9.20
2019,04,02,08,40,9.20
2019,04,02,08,41,9.30
2019,04,02,08,42,9.30
2019,04,02,08,43,9.40
2019,04,02,08,44,9.50
2019,04,02,08,45,9.50
2019,04,02,08,46,9.60
2019,04,02,08,47,9.60
2019,04,02,08,48,9.70
2019,04,02,08,49,9.70
2019,04,02,08,50,9.80
2019,04,02,08,51,9.80
2019,04,02,08,52,9.90
2019,04,02,08,53,9.90
2019,04,02,08,54,9.90
2019,04,02,08,55,10.00
2019,04,02,08,56,10.10
2019,04,02,08,57,10.10
2019,04,02,08,58,10.10
2019,04,02,08,59,10.20
2019,04,02,09,00,10.20
2019,04,02,09,01,10.30
2019,04,02,09,02,10.30
2019,04,02,09,03,10.30
2019,04,02,09,04,10.30
2019,04,02,09,05,10.40
2019,04,02,09,06,10.40
2019,04,02,09,07,10.50
2019,04,02,09,08,10.50
2019,04,02,09,09,10.60
2019,04,02,09,10,10.60
2019,04,02,09,11,10.70
2019,04,02,09,12,10.70
2019,04,02,09,13,10.80
2019,04,02,09,14,10.90
2019,04,02,09,15,10.90
2019,04,02,09,16,11.00
2019,04,02,09,17,11.00
2019,04,02,09,18,11.10
2019,04,02,09,19,11.10
2019,04,02,09,20,11.20
2019,04,02,09,21,11.20
2019,04,02,09,22,11.30
2019,04,02,09,23,11.30
2019,04,02,09,24,11.30
2019,04,02,09,25,11.40
2019,04,02,09,26,11.40
2019,04,02,09,27,11.40
2019,04,02,09,28,11.50
2019,04,02,09,29,11.60
2019,04,02,09,30,11.60
2019,04,02,09,31,11.70
2019,04,02,09,32,11.70
2019,04,02,09,33,11.80
2019,04,02,09,34,11.80
2019,04,02,09,35,11.90
2019,04,02,09,36,12.00
2019,04,02,09,37,12.10
2019,04,02,09,38,12.20
2019,04,02,09,39,12.20
2019,04,02,09,40,12.30
2019,04,02,09,41,12.40
2019,04,02,09,42,12.50
2019,04,02,09,43,12.50
2019,04,02,09,44,12.60
2019,04,02,09,45,12.70
2019,04,02,09,46,12.70
2019,04,02,09,47,12.80
2019,04,02,09,48,12.80
2019,04,02,09,49,12.90
2019,04,02,09,50,13.00
2019,04,02,09,51,13.00
2019,04,02,09,52,13.10
2019,04,02,09,53,13.10
2019,04,02,09,54,13.10
2019,04,02,09,55,13.20
2019,04,02,09,56,13.20
2019,04,02,09,57,13.30
2019,04,02,09,58,13.30
2019,04,02,09,59,13.30
2019,04,02,10,00,13.40
2019,04,02,10,01,13.40
2019,04,02,10,02,13.50
2019,04,02,10,03,13.50
2019,04,02,10,04,13.60
2019,04,02,10,05,13.60
2019,04,02,10,06,13.70
2019,04,02,10,07,13.70
2019,04,02,10,08,13.80
2019,04,02,10,09,13.80
2019,04,02,10,10,13.90
2019,04,02,10,11,13.90
2019,04,02,10,12,14.00
2019,04,02,10,13,14.00
2019,04,02,10,14,14.10
2019,04,02,10,15,14.10
2019,04,02,10,16,14.20
2019,04,02,10,17,14.20
2019,04,02,10,18,14.20
2019,04,02,10,19,14.30
2019,04,02,10,20,14.30
2019,04,02,10,21,14.40
2019,04,02,10,22,14.50
2019,04,02,10,23,14.50
2019,04,02,10,24,14.60
2019,04,02,10,25,14.60
2019,04,02,10,26,14.70
2019,04,02,10,27,14.70
2019,04,02,10,28,14.70
2019,04,02,10,29,14.80
2019,04,02,10,30,14.80
2019,04,02,10,31,14.90
2019,04,02,10,32,14.90
2019,04,02,10,33,14.90
2019,04,02,10,34,14.90
2019,04,02,10,35,15.00
2019,04,02,10,36,15.00
2019,04,02,10,37,15.10
2019,04,02,10,38,15.10
2019,04,02,10,39,15.20
2019,04,02,10,40,15.20
2019,04,02,10,41,15.20
2019,04,02,10,42,15.20
2019,04,02,10,43,15.20
2019,04,02,10,44,15.20
2019,04,02,10,45,15.20
2019,04,02,10,46,15.20
2019,04,02,10,47,15.20
2019,04,02,10,48,15.20
2019,04,02,10,49,15.30
2019,04,02,10,50,15.30
2019,04,02,10,51,15.30
2019,04,02,10,52,15.30
2019,04,02,10,53,15.40
2019,04,02,10,54,15.40
2019,04,02,10,55,15.50
2019,04,02,10,56,15.50
2019,04,02,10,57,15.60
2019,04,02,10,58,15.70
2019,04,02,10,59,15.70
2019,04,02,11,00,15.70
2019,04,02,11,01,15.80
2019,04,02,11,02,15.80
2019,04,02,11,03,15.80
2019,04,02,11,04,15.90
2019,04,02,11,05,16.00
2019,04,02,11,06,16.00
2019,04,02,11,07,16.00
2019,04,02,11,08,16.10
2019,04,02,11,09,16.10
2019,04,02,11,10,16.10
2019,04,02,11,11,16.20
2019,04,02,11,12,16.20
2019,04,02,11,13,16.20
2019,04,02,11,14,16.30
2019,04,02,11,15,16.30
2019,04,02,11,16,16.30
2019,04,02,11,17,16.30
2019,04,02,11,18,16.30
2019,04,02,11,19,16.40
2019,04,02,11,20,16.40
2019,04,02,11,21,16.40
2019,04,02,11,22,16.40
2019,04,02,11,23,16.40
2019,04,02,11,24,16.40
2019,04,02,11,25,16.40
2019,04,02,11,26,16.50
2019,04,02,11,27,16.50
2019,04,02,11,28,16.60
2019,04,02,11,29,16.60
2019,04,02,11,30,16.60
2019,04,02,11,31,16.60
2019,04,02,11,32,16.60
2019,04,02,11,33,16.60
2019,04,02,11,34,16.60
2019,04,02,11,35,16.60
2019,04,02,11,36,16.60
2019,04,02,11,37,16.60
2019,04,02,11,38,16.60
2019,04,02,11,39,16.60
2019,04,02,11,40,16.60
2019,04,02,11,41,16.50
2019,04,02,11,42,16.50
2019,04,02,11,43,16.50
2019,04,02,11,44,16.50
2019,04,02,11,45,16.50
2019,04,02,11,46,16.50
2019,04,02,11,47,16.50
2019,04,02,11,48,16.40
2019,04,02,11,49,16.40
2019,04,02,11,50,16.40
2019,04,02,11,51,16.40
2019,04,02,11,52,16.40
2019,04,02,11,53,16.40
2019,04,02,11,54,16.40
2019,04,02,11,55,16.40
2019,04,02,11,56,16.40
2019,04,02,11,57,16.30
2019,04,02,11,58,16.30
2019,04,02,11,59,16.30
2019,04,02,12,00,16.30
2019,04,02,12,01,16.30
2019,04,02,12,02,16.30
2019,04,02,12,03,16.40
2019,04,02,12,04,16.40
2019,04,02,12,05,16.40
2019,04,02,12,06,16.40
2019,04,02,12,07,16.50
2019,04,02,12,08,16.50
2019,04,02,12,09,16.60
2019,04,02,12,10,16.60
2019,04,02,12,11,16.60
2019,04,02,12,12,16.60
2019,04,02,12,13,16.70
2019,04,02,12,14,16.70
2019,04,02,12,15,16.70
2019,04,02,12,16,16.70
2019,04,02,12,17,16.70
2019,04,02,12,18,16.70
2019,04,02,12,19,16.70
2019,04,02,12,20,16.80
2019,04,02,12,21,16.80
2019,04,02,12,22,16.80
2019,04,02,12,23,16.80
2019,04,02,12,24,16.80
2019,04,02,12,25,16.90
2019,04,02,12,26,16.90
2019,04,02,12,27,16.90
2019,04,02,12,28,16.90
2019,04,02,12,29,17.00
2019,04,02,12,30,17.10
2019,04,02,12,31,17.10
2019,04,02,12,32,17.10
2019,04,02,12,33,17.10
2019,04,02,12,34,17.10
2019,04,02,12,35,17.20
2019,04,02,12,36,17.10
2019,04,02,12,37,17.10
2019,04,02,12,38,17.10
2019,04,02,12,39,17.10
2019,04,02,12,40,17.20
2019,04,02,12,41,17.20
2019,04,02,12,42,17.20
2019,04,02,12,43,17.20
2019,04,02,12,44,17.30
2019,04,02,12,45,17.30
2019,04,02,12,46,17.40
2019,04,02,12,47,17.50
2019,04,02,12,48,17.50
2019,04,02,12,49,17.50
2019,04,02,12,50,17.50
2019,04,02,12,51,17.50
2019,04,02,12,52,17.40
2019,04,02,12,53,17.50
2019,04,02,12,54,17.50
2019,04,02,12,55,17.60
2019,04,02,12,56,17.60
2019,04,02,12,57,17.70
2019,04,02,12,58,17.80
2019,04,02,12,59,17.90
2019,04,02,13,00,17.90
2019,04,02,13,01,18.00
2019,04,02,13,02,18.10
2019,04,02,13,03,18.20
2019,04,02,13,04,18.20
2019,04,02,13,05,18.20
2019,04,02,13,06,18.10
2019,04,02,13,07,18.10
2019,04,02,13,08,18.10
2019,04,02,13,09,18.10
2019,04,02,13,10,18.10
2019,04,02,13,11,18.00
2019,04,02,13,12,18.00
2019,04,02,13,13,17.90
2019,04,02,13,14,17.80
2019,04,02,13,15,17.80
2019,04,02,13,16,17.70
2019,04,02,13,17,17.70
2019,04,02,13,18,17.70
2019,04,02,13,19,17.70
2019,04,02,13,20,17.70
2019,04,02,13,21,17.70
2019,04,02,13,22,17.70
2019,04,02,13,23,17.70
2019,04,02,13,24,17.70
2019,04,02,13,25,17.70
2019,04,02,13,26,17.70
2019,04,02,13,27,17.70
2019,04,02,13,28,17.70
2019,04,02,13,29,17.80
2019,04,02,13,30,17.80
2019,04,02,13,31,17.90
2019,04,02,13,32,17.90
2019,04,02,13,33,18.00
2019,04,02,13,34,18.10
2019,04,02,13,35,18.10
2019,04,02,13,36,18.20
2019,04,02,13,37,18.20
2019,04,02,13,38,18.20
2019,04,02,13,39,18.30
2019,04,02,13,40,18.30
2019,04,02,13,41,18.30
2019,04,02,13,42,18.30
2019,04,02,13,43,18.30
2019,04,02,13,44,18.40
2019,04,02,13,45,18.40
2019,04,02,13,46,18.40
2019,04,02,13,47,18.50
2019,04,02,13,48,18.50
2019,04,02,13,49,18.60
2019,04,02,13,50,18.60
2019,04,02,13,51,18.60
2019,04,02,13,52,18.60
2019,04,02,13,53,18.60
2019,04,02,13,54,18.60
2019,04,02,13,55,18.70
2019,04,02,13,56,18.70
2019,04,02,13,57,18.80
2019,04,02,13,58,18.80
2019,04,02,13,59,18.90
2019,04,02,14,00,18.90
2019,04,02,14,01,18.90
2019,04,02,14,02,18.90
2019,04,02,14,03,18.90
2019,04,02,14,04,18.90
2019,04,02,14,05,18.90
2019,04,02,14,06,18.90
2019,04,02,14,07,18.80
2019,04,02,14,08,18.80
2019,04,02,14,09,18.70
2019,04,02,14,10,18.70
2019,04,02,14,11,18.70
2019,04,02,14,12,18.70
2019,04,02,14,13,18.70
2019,04,02,14,14,18.70
2019,04,02,14,15,18.70
2019,04,02,14,16,18.70
2019,04,02,14,17,18.70
2019,04,02,14,18,18.80
2019,04,02,14,19,18.90
2019,04,02,14,20,19.00
2019,04,02,14,21,19.10
2019,04,02,14,22,19.10
2019,04,02,14,23,19.20
2019,04,02,14,24,19.30
2019,04,02,14,25,19.30
2019,04,02,14,26,19.30
2019,04,02,14,27,19.20
2019,04,02,14,28,19.20
2019,04,02,14,29,19.20
2019,04,02,14,30,19.30
2019,04,02,14,31,19.30
2019,04,02,14,32,19.30
2019,04,02,14,33,19.30
2019,04,02,14,34,19.30
2019,04,02,14,35,19.30
2019,04,02,14,36,19.30
2019,04,02,14,37,19.30
2019,04,02,14,38,19.30
2019,04,02,14,39,19.30
2019,04,02,14,40,19.30
2019,04,02,14,41,19.40
2019,04,02,14,42,19.40
2019,04,02,14,43,19.50
2019,04,02,14,44,19.60
2019,04,02,14,45,19.60
2019,04,02,14,46,19.60
2019,04,02,14,47,19.60
2019,04,02,14,48,19.70
2019,04,02,14,49,19.70
2019,04,02,14,50,19.80
2019,04,02,14,51,19.80
2019,04,02,14,52,19.80
2019,04,02,14,53,19.80
2019,04,02,14,54,19.80
2019,04,02,14,55,19.80
2019,04,02,14,56,19.70
2019,04,02,14,57,19.70
2019,04,02,14,58,19.70
2019,04,02,14,59,19.60
2019,04,02,15,00,19.60
2019,04,02,15,01,19.50
2019,04,02,15,02,19.50
2019,04,02,15,03,19.50
2019,04,02,15,04,19.40
2019,04,02,15,05,19.40
2019,04,02,15,06,19.30
2019,04,02,15,07,19.30
2019,04,02,15,08,19.30
2019,04,02,15,09,19.30
2019,04,02,15,10,19.20
2019,04,02,15,11,19.20
2019,04,02,15,12,19.20
2019,04,02,15,13,19.20
2019,04,02,15,14,19.20
2019,04,02,15,15,19.20
2019,04,02,15,16,19.20
2019,04,02,15,17,19.20
2019,04,02,15,18,19.20
2019,04,02,15,19,19.20
2019,04,02,15,20,19.20
2019,04,02,15,21,19.20
2019,04,02,15,22,19.20
2019,04,02,15,23,19.20
2019,04,02,15,24,19.20
2019,04,02,15,25,19.20
2019,04,02,15,26,19.20
2019,04,02,15,27,19.20
2019,04,02,15,28,19.20
2019,04,02,15,29,19.20
2019,04,02,15,30,19.20
2019,04,02,15,31,19.20
2019,04,02,15,32,19.30
2019,04,02,15,33,19.30
2019,04,02,15,34,19.30
2019,04,02,15,35,19.20
2019,04,02,15,36,19.20
2019,04,02,15,37,19.20
2019,04,02,15,38,19.20
2019,04,02,15,39,19.10
2019,04,02,15,40,19.10
2019,04,02,15,41,19.10
2019,04,02,15,42,19.10
2019,04,02,15,43,19.10
2019,04,02,15,44,19.10
2019,04,02,15,45,19.20
2019,04,02,15,46,19.20
2019,04,02,15,47,19.20
2019,04,02,15,48,19.20
2019,04,02,15,49,19.10
2019,04,02,15,50,19.10
2019,04,02,15,51,19.10
2019,04,02,15,52,19.10
2019,04,02,15,53,19.10
2019,04,02,15,54,19.10
2019,04,02,15,55,19.00
2019,04,02,15,56,19.00
2019,04,02,15,57,19.00
2019,04,02,15,58,19.00
2019,04,02,15,59,19.00
2019,04,02,16,00,19.00
2019,04,02,16,01,19.00
2019,04,02,16,02,19.10
2019,04,02,16,03,19.10
2019,04,02,16,04,19.10
2019,04,02,16,05,19.10
2019,04,02,16,06,19.10
2019,04,02,16,07,19.00
2019,04,02,16,08,19.00
2019,04,02,16,09,19.00
2019,04,02,16,10,19.00
2019,04,02,16,11,19.10
2019,04,02,16,12,19.10
2019,04,02,16,13,19.10
2019,04,02,16,14,19.10
2019,04,02,16,15,19.20
2019,04,02,16,16,19.20
2019,04,02,16,17,19.20
2019,04,02,16,18,19.20
2019,04,02,16,19,19.30
2019,04,02,16,20,19.30
2019,04,02,16,21,19.30
2019,04,02,16,22,19.30
2019,04,02,16,23,19.30
2019,04,02,16,24,19.30
2019,04,02,16,25,19.30
2019,04,02,16,26,19.30
2019,04,02,16,27,19.30
2019,04,02,16,28,19.30
2019,04,02,16,29,19.40
2019,04,02,16,30,19.40
2019,04,02,16,31,19.40
2019,04,02,16,32,19.40
2019,04,02,16,33,19.40
2019,04,02,16,34,19.40
2019,04,02,16,35,19.40
2019,04,02,16,36,19.40
2019,04,02,16,37,19.30
2019,04,02,16,38,19.30
2019,04,02,16,39,19.30
2019,04,02,16,40,19.30
2019,04,02,16,41,19.20
2019,04,02,16,42,19.20
2019,04,02,16,43,19.20
2019,04,02,16,44,19.10
2019,04,02,16,45,19.10
2019,04,02,16,46,19.00
2019,04,02,16,47,19.00
2019,04,02,16,48,19.00
2019,04,02,16,49,18.90
2019,04,02,16,50,18.90
2019,04,02,16,51,18.80
2019,04,02,16,52,18.80
2019,04,02,16,53,18.80
2019,04,02,16,54,18.80
2019,04,02,16,55,18.80
2019,04,02,16,56,18.80
2019,04,02,16,57,18.80
2019,04,02,16,58,18.80
2019,04,02,16,59,18.80
2019,04,02,17,00,18.80
2019,04,02,17,01,18.80
2019,04,02,17,02,18.80
2019,04,02,17,03,18.80
2019,04,02,17,04,18.80
2019,04,02,17,05,18.80
2019,04,02,17,06,18.80
2019,04,02,17,07,18.80
2019,04,02,17,08,18.80
2019,04,02,17,09,18.80
2019,04,02,17,10,18.80
2019,04,02,17,11,18.80
2019,04,02,17,12,18.80
2019,04,02,17,13,18.70
2019,04,02,17,14,18.70
2019,04,02,17,15,18.70
2019,04,02,17,16,18.60
2019,04,02,17,17,18.60
2019,04,02,17,18,18.60
2019,04,02,17,19,18.60
2019,04,02,17,20,18.50
2019,04,02,17,21,18.50
2019,04,02,17,22,18.50
2019,04,02,17,23,18.40
2019,04,02,17,24,18.40
2019,04,02,17,25,18.40
2019,04,02,17,26,18.40
2019,04,02,17,27,18.40
2019,04,02,17,28,18.30
2019,04,02,17,29,18.30
2019,04,02,17,30,18.30
2019,04,02,17,31,18.30
2019,04,02,17,32,18.30
2019,04,02,17,33,18.30
2019,04,02,17,34,18.30
2019,04,02,17,35,18.30
2019,04,02,17,36,18.30